Погода в Леуши

Погода в Леуши : погода сейчас, прогноз погоды и архив. Всё, что Вы хотите узнать о погоде в Леуши!

Хотите узнать прогноз погоды в Леуши? Тогда Вам сюда: Погода в Леуши

Поиск расширенной информации на нашем сайте:

Другие новости

Новости СМИ2

Главная страница сайта

Новости сайта

02.10.2013

Напоминаем, что на нашем новом сайте вы можете получить высокодетализированные прогнозы погоды по пунктам России, СНГ и мира (включающие важные для авиации метеовеличины, такие как направление и скорость ветра, видимость, явления погоды, количество и форма облачности, нижняя и верхняя граница облачности), а также ознакомиться с разнообразными материалами по авиационной метеорологии и подборкой полезных ссылок на эту тему.

Сайт Метеоцентр.Азия посвящён разработке технологий оптимизации авиаметеорологического обслуживания, включая проектирование и перспективное создание нескольких автоматизированных авиаметеорологических систем:
- система выпуска высокодетальных прогностических карт явлений погоды для нижнего воздушного пространства по России и ближнему зарубежью;
- система верификации прогнозов TAF (выпускаемых синоптиками официальных АМСГ РФ и ближнего зарубежья) и AUTOTAF (выпускаемых сайтом Метеоцентр.Азия) - выявление ошибок, онлайн-сопоставление с фактической погодой METAR, автоматическое внесение коррективов в прогнозы при резком отклонении фактической погоды от прогноза, подсчёт оправдываемости прогнозов по элементам и в целом;
- система обработки, анализа и отображения авиаметеорологической информации для применения провайдерами метеорологической информации.

Рекомендуем: Сервисный центр ремонт компьютеров оболенск заменит материнскую плату.

Погода в Леуши - сегодня

Время (UTC), дата Ветер
(°,м/с) 
Видим.   Явления Облачность Т
(°С)
Тd
(°С)
f(%) Тe
(°С)
Pmin
(гПа)
dP
(гПа)
Po
(мм)
O2
(г/м3)
Тmin Tmax R s Состояние
почвы
21 26.03.17 190 (Ю) 20000 м  {снег}  8/8 300 м 
[Frnb]
+0.2 -1.8 86 -1  1000.4  -1.1  744  300           
00 27.03.17 180 (Ю) 20000 м  {снег}  10/3 600 м верхняя 
[Sc|Ci fib]
-2.1 -4.8 82 -3  1000  -0.5  743  302           
03 27.03.17 180 (Ю) 20000 м    3/1 600 м верхняя 
[Sc|Ci fib]
-2 -7.2 68 -4  999.7  -0.3  743  302  -2.9    0.0  53  равномерный
мокрый или
старый снег
100% 
06 27.03.17 190 (Ю) 20000 м    10/8 600 м средняя 
[Sc|Ac trans]
+0.7 -5.6 63 -1  999.2  -0.4  743  299           
09 27.03.17 180 (Ю) 2{10}  20000 м    8/5 600 м средняя 
[Sc|Ac trans]
+3.4 -5.3 53 +3  999.8  -0.4  743  296           
12 27.03.17 240 (ЮЗ) 20000 м  {ливн. осадки}  8/5 600 м кучево-дожд., верхняя 
[Cb cap|Ci fib]
+3.3 -7 47 +3  1000.4  0.6  744  297           
15 27.03.17 170 (Ю) 20000 м    8/8 600 м кучево-дожд. 
[Cb cap]
+0.4 -5.9 63 +1  1001.8  1.3  745  300    +4.2  0.0     
18 27.03.17 180 (Ю) 20000 м    10/10 600 м 
[Sc]
-0.8 -6.2 67 -2  1002  0.1  745  302           
21 27.03.17 180 (Ю) 20000 м    10/10 600 м 
[Sc]
-2.2 -6.9 70 -3  1001.6  -0.4  745  303           
00 28.03.17 180 (Ю) 20000 м    3/0 верхняя 
[Ci fib]
-3.9 -7.2 78 -5  1001  -0.7  744  305           
03 28.03.17 180 (Ю) 20000 м    3/0 верхняя 
[Cc]
-3.2 -7.2 74 -4  1000.6  -0.3  744  304  -4.8      51  равномерный
мокрый или
старый снег
100% 
06 28.03.17 170 (Ю) 20000 м    3/0 верхняя 
[Ci fib]
+2.9 -6.2 51 +2  999.8  -0.6  743  297           
09 28.03.17 180 (Ю) 20000 м    10/5 600 м верхняя 
[Cu Sc|Cs]
+4.7 -7.7 40 +4  998.1  -1.6  742  295           
12 28.03.17 170 (Ю) 3-10{10}  20000 м    10/6 600 м верхняя 
[Sc|Cc]
+3.7 -8.8 40 +2  996.6  -1.5  741  295           
15 28.03.17 170 (Ю) 3{10}  20000 м    10/0 верхняя 
[Ci sp]
+0.9 -6.5 58 -1  995.3  -1.4  740  298    +4.8       
18 28.03.17 170 (Ю) 20000 м    10/0 верхняя 
[Ci sp]
-0.1 -6 64 -3  993.5  -1.8  739  298           
21 28.03.17 180 (Ю) 20000 м    10/0 верхняя 
[Ci fib]
+0.2 -5.7 64 -2  991.6  -1.8  737  297           
00 29.03.17 180 (Ю) 20000 м    10/0 верхняя 
[Ci fib]
-1.9 -5.3 78 -3  990.9  -0.8  737  299           
03 29.03.17 190 (Ю) 20000 м    10/0 верхняя 
[Ci fib]
-1.5 -3.5 86 -2  991.2  -0.8  737  299  -1.9      50  равномерный
мокрый или
старый снег
100% 
06 29.03.17 190 (Ю) 10 км  слаб. снег  10/10 600 м 
[Sc]
+1.1 -3.4 72 +2  992  0.8  738  296           
09 29.03.17 200 (Ю) 20000 м  {снег}  9/8 600 м кучево-дожд., средняя 
[Cb cap|Ac cast]
+2.9 -4.4 59 +2  993.2  1.2  738  295           
12 29.03.17 170 (Ю) 10 км  слаб. снег{ливн. осадки}  10/8 600 м кучево-дожд., верхняя 
[Cb cap|Ci fib]
+2.5 -3.4 65 +2  994.4  1.3  739  296           
15 29.03.17 160 (Ю) 20000 м  {ливн. осадки, снег}  10/4 600 м средняя, верхняя 
[Sc|Ac trans|Ci fib]
-2.5 -3.6 92 -2  995.7  740  301    +1.4     
18 29.03.17 160 (Ю) 20000 м  {ливн. осадки, снег}  10/4 600 м верхняя 
[Sc|Ci fib]
-2.9 -6.5 76 -4  995.2  -0.5  740  302           
21 29.03.17 130 (ЮВ) 20000 м    10/8 600 м верхняя 
[Sc|Ci fib]
-1.2 -4.5 78 -2  993.7  -1.4  739  299           
Время (UTC), дата Ветер
(°,м/с) 
Видим.   Явления Облачность Т
(°С)
Тd
(°С)
f(%) Тe
(°С)
Pmin
(гПа)
dP
(гПа)
Po
(мм)
O2
(г/м3)
Тmin Tmax R s Состояние
почвы

Для получения пояснительной информации подведите курсор к названию столбца.

ПОГОДА в Леуши - архив

Всё, что Вы хотите узнать о погоде в Леуши - удобно и подробно!

Выберите нужную дату (начиная с 1 января 2015* года) и нажмите кнопку "Найти".
Будут отображены архивные сводки погоды по пункту Леуши, начиная с указанной даты.


Отображать данные в формате CSV (для использования в таблицах Excel)


Внимание! Наш архив погоды предназначен исключительно для личного некоммерческого использования в познавательных целях. Если Вам необходимы официальные справки о состоянии погоды (для производственных, юридических, коммерческих и т.п. целей), обращайтесь в органы Росгидромета.

*Примечание: данная дата относится к архиву по метеостанциям СССР (Россия, СНГ, Балтия).
Архив по метеостанциям Зарубежной Европы и Азии (кроме Китая) хранится 10 дней, по другим регионам земного шара (Китай, Африка, Америка, Австралия, Океания) - 1 день.

Леуши - район местоположения метеостанции


Название, широта, долгота, высота метеостанции:
Леуши 59.6°ш. 65.7°д. 72 м над ур. моря [Российская Федерация]

Дополнительная информация

В oтличие oт бoльшинства пoгoдных сайтoв мы публикуем пoдрoбную метеoинфoрмацию в детальнoм прoфессиoнальнoм фoрмате.

Характеристики температуры и влажнoсти вoздуха измеряются на высoте 2 м в тени вдали oт зданий и деревьев.
Скoрoсть ветра измеряется на высoте 10 м (на урoвне рoста челoвека скoрoсть ветра ниже в 1.5-2 раза). Если метеoстанция нахoдится в гoрoде или в лесу, тo скoрoсть ветра занижена на 2-4 м/с пo сравнению с oткрытым местoм. Скoрoсть ветра над акватoриями крупных рек и oзёр, а также на вершинах хoлмoв на 2-5 м/с выше, чем в oбычных услoвиях.
Атмoсфернoе давление в разных тoчках местнoсти мoжет значительнo oтличаться oт давления на метеoстанции, в зависимoсти oт услoвий рельефа (при пoдъёме на 10 м давление пoнижается примернo на 1 мм рт.ст.).